Portada
METAR-TAF:

METAR-TAF

Aeroports :

Hōfu, Japó

latitud: 34-02N, longitud: 131-33E, altitud: 2 m

Observació

L'informe es va fer fa 5 hores i 18 minuts, a les 04:18 UTC
Vent 6 kt del Sud/Sud-Oest
Temperatura 20°C
Humitat 53%
Pressió 1018 hPa
Visibilitat 10 km o més
Escasses núvols a una alçada de 3000 ft
Núvols disperses a una alçada de 4000 ft

METAR: RJOF 120418Z 21006KT 9999 FEW030 SCT040 20/10 Q1018 RMK 1CU030 3CU040 A3006

Hora: 18:36 (09:36 UTC)


TAF: manca

Observacions i pronòstics meteorològics de més de 4000 aeroports (METAR i TAF).

Les estacions disponibles són els punts grocs i vermells al mapa.

Posi el ratolí al punt desitjat per veure el nom de l'estació.

Feu clic per veure les observacions i els pronòstics meteorològics.

Per canviar el mapa: feu clic els botons verds amb una creu de color negre per apropar; al botó verd amb un guió per allunyar la imatge; o en les fletxes verdes per a mapes adjacents.


METAR-TAF: